This is the latest recevied weather packets stored in our database for station/object KC1HBM. If no packets are shown the sender has not sent any weather packets the latest 10 day(s).
| Time | Temp. | Humidity | Pressure | Rain* | Wind** | Luminosity | Snow |
|---|---|---|---|---|---|---|---|
| 1777419464 | 8.33° C | 45% | 1019 hPa | 0 mm | - | 0 W/m² | - |
| 1777419164 | 8.33° C | 45% | 1019.2 hPa | 0 mm | - | 0 W/m² | - |
| 1777418859 | 8.33° C | 45% | 1019 hPa | 0 mm | - | 0 W/m² | - |
| 1777418555 | 8.89° C | 48% | 1019.3 hPa | 0 mm | - | 2 W/m² | - |
| 1777418252 | 8.89° C | 49% | 1019.3 hPa | 0 mm | - | 3 W/m² | - |
| 1777417947 | 8.89° C | 53% | 1019.4 hPa | 0 mm | - | 4 W/m² | - |
| 1777417644 | 8.89° C | 50% | 1019.4 hPa | 0 mm | - | 6 W/m² | - |
| 1777417339 | 8.89° C | 54% | 1019.5 hPa | 0 mm | - | 7 W/m² | - |
| 1777417036 | 8.89° C | 53% | 1019.6 hPa | 0 mm | - | 8 W/m² | - |
| 1777416731 | 8.89° C | 54% | 1019.6 hPa | 0 mm | - | 10 W/m² | - |
| 1777416427 | 9.44° C | 53% | 1019.6 hPa | 0 mm | - | 12 W/m² | - |
| 1777416122 | 9.44° C | 49% | 1019.9 hPa | 0 mm | - | 13 W/m² | - |
| 1777415816 | 9.44° C | 49% | 1020.1 hPa | 0 mm | - | 15 W/m² | - |
| 1777415513 | 9.44° C | 51% | 1019.8 hPa | 0 mm | - | 15 W/m² | - |
| 1777415208 | 9.44° C | 46% | 1019.8 hPa | 0 mm | - | 15 W/m² | - |
| 1777414898 | 9.44° C | 45% | 1019.8 hPa | 0 mm | - | 14 W/m² | - |
| 1777414597 | 9.44° C | 39% | 1020.1 hPa | 0 mm | - | 14 W/m² | - |
| 1777414292 | 9.44° C | 40% | 1020.1 hPa | 0 mm | - | 11 W/m² | - |
| 1777413987 | 9.44° C | 39% | 1020.2 hPa | 0 mm | - | 12 W/m² | - |
| 1777413683 | 9.44° C | 39% | 1020.1 hPa | 0 mm | - | 13 W/m² | - |
| 1777413379 | 9.44° C | 34% | 1020.3 hPa | 0 mm | - | 13 W/m² | - |
| 1777413075 | 9.44° C | 35% | 1020.3 hPa | 0 mm | - | 14 W/m² | - |
| 1777412770 | 10° C | 39% | 1020.2 hPa | 0 mm | - | 14 W/m² | - |
| 1777412469 | 10° C | 34% | 1020.2 hPa | 0 mm | - | 15 W/m² | - |
| 1777412167 | 10° C | 33% | 1020.2 hPa | 0 mm | - | 16 W/m² | - |
* Rain latest hour (hover to see other rain measurements)
** Current wind speed in m/s (hover to see current wind gust speed)